19P/Borrelly (2008)

Japanese version
Home page
Updated on March 17, 2010

---------------------------------------------------------------------

* Profile

* Pictures

* Orbital Elements

Epoch 2008 Aug. 2.0 TT = JDT 2454680.5
T 2008 July 22.32968 TT                                 MPC
q   1.3547768            (2000.0)            P               Q
n   0.14383090     Peri.  353.37824     +0.34598066     -0.80092461
a   3.6077346      Node    75.44469     +0.88232010     +0.10060971
e   0.6244799      Incl.   30.32428     +0.31907464     +0.59025203
P   6.85
From 1230 observations 1994 June 12-2007 Aug. 31, mean residual 0".69.  Non-
   gravitational parameters A1 = +0.27 +/- 0.01, A2 = -0.0473 +/- 0.0005.

* Finding Charts

* Magnitudes Graph

        H = 15.0  G = 0.15               [    ,-370]  (             - 2007 July 18)
        m1 = 4.5 + 5 log d + 25.0 log r  [-370, 125]  (2007 July 18 - 2008 Nov. 24)
        m1 = 7.4 + 5 log d + 15.0 log r  [ 125,    ]  (2008 Nov. 24 -             )

---------------------------------------------------------------------

The orbital elements are published on M.P.E.C. 2007-Q46.
The charts are made with StellaNavigator Ver.2.0 for Windows (AstroArts / ASCII).
The magnitudes graphs are made with Comet for Windows.

---------------------------------------------------------------------

Copyright(C) Seiichi Yoshida (comet@aerith.net). All rights reserved.